Location: Unspecified
(0.0000°N, 0.0000°E)
Time: 14:02:00
(UTC+00:00)

NOSS 3-1 (A) - Pass Details

Date: 27 April 2019
Orbit: 778 x 1434 km, 63.4° (Epoch: 13 May)

Event Time Altitude Azimuth Distance (km) Brightness Sun altitude
Rises 05:04:57 0° 317° (NW) 4,439 6.6 -12.8°
Reaches altitude 10° 05:08:10 10° 308° (NW) 3,505 6.0 -12.0°
Maximum altitude 05:15:48 34° 247° (WSW) 2,190 4.8 -10.2°
Drops below altitude 10° 05:23:24 10° 186° (S) 3,463 6.2 -8.3°
Sets 05:26:36 0° 177° (S) 4,379 6.8 -7.6°
